[[{"header":{"parameterUnit":"m.s-1","parameterCategory":1,"la1":30.2991,"la2":30.254,"lo1":-89.0895,"lo2":-89.0444,"dy":0.0017,"dx":0.0017,"nx":28,"ny":28,"refTime":"2025-04-22T03:00:00:Z","depth":0,"parameterNumber":2,"parameterNumberName":"U-component_of_WINDS"},"data":[0,0,0,0,0,0,0,0,0,0,0,0,0,0,0,0,0,0,0,0,0,0,0,0,0,0,0,0,0,0,0,0,0,0,0,0,0,0,0,0,0,0,0,0,0,0,0,0,0,0,0,0,0,0,0,0,0,0,-0.5124,-0.5124,0,-0.5086,-0.5085,-0.5085,-0.5046,-0.5046,-0.5045,-0.5045,-0.501,-0.5009,-0.5009,0,0,0,0,0,0,0,0,0,0,0,0,0,-0.5167,-0.5167,-0.5124,-0.5124,-0.5123,-0.5086,-0.5085,-0.5085,-0.5046,-0.5046,-0.5045,-0.5045,-0.501,-0.5009,-0.5009,0,0,0,0,0,0,0,0,0,0,0,0,0,-0.5141,-0.5167,-0.5124,-0.5099,-0.5097,-0.5086,-0.5085,-0.5085,-0.5047,-0.5046,-0.5045,-0.5044,-0.501,-0.5009,-0.5009,-0.5021,0,0,-0.5007,-0.5006,0,0,0,0,0,0,0,0,-0.5143,-0.514,-0.5103,-0.5101,-0.5098,-0.507,-0.5088,-0.5063,-0.5047,-0.5066,-0.5045,-0.5044,-0.5031,-0.5028,-0.5023,-0.5019,-0.5017,-0.5006,-0.5006,-0.5006,-0.5006,0,0,0,0,0,0,0,-0.5144,-0.5141,-0.5109,-0.5103,-0.51,-0.5091,-0.5087,-0.5083,-0.5053,-0.5064,-0.5061,-0.5057,-0.5029,-0.5024,-0.5022,-0.5017,-0.5007,-0.5006,-0.5006,-0.5005,-0.5022,-0.5023,0,0,0,0,0,0,-0.515,-0.5143,-0.511,-0.5108,-0.5119,-0.5091,-0.5086,-0.508,-0.5053,-0.5048,-0.5058,-0.5055,-0.5025,-0.5023,-0.502,-0.5033,-0.5006,-0.5005,-0.5005,-0.5021,-0.5022,-0.5023,0,0,0,0,0,0,-0.5151,-0.5147,-0.5112,-0.5124,-0.5119,-0.5091,-0.5085,-0.508,-0.5074,-0.5048,-0.5043,-0.5057,-0.5024,-0.5021,-0.5021,-0.5032,-0.5005,-0.5004,-0.502,-0.5021,-0.5023,-0.5059,0,0,0,0,0,0,-0.5152,-0.5148,-0.5151,-0.5125,-0.5119,-0.5112,-0.5085,-0.5079,-0.5073,-0.5069,-0.5047,-0.5042,-0.5024,-0.5022,-0.502,-0.503,-0.5004,-0.5019,-0.5021,-0.5022,-0.5057,-0.5061,-0.5065,0,0,0,0,0,-0.5154,-0.5163,-0.5151,-0.5147,-0.5122,-0.5112,-0.5109,-0.5086,-0.5074,-0.5077,-0.5061,-0.5043,-0.5031,-0.5022,-0.502,-0.503,-0.5018,-0.502,-0.5022,-0.5055,-0.506,-0.5065,0,0,0,0,0,0,-0.5192,-0.5159,-0.5146,-0.5147,-0.5132,-0.5106,-0.511,-0.5093,-0.5083,-0.508,-0.5054,-0.5049,-0.5052,-0.5041,-0.5032,-0.5041,-0.5022,-0.5023,-0.5048,-0.5053,-0.5057,-0.506,-0.5003,0,0,0,0,0,-0.5201,-0.5194,-0.5166,-0.517,-0.5164,-0.5138,-0.5133,-0.5117,-0.5101,-0.5095,-0.5079,-0.5066,-0.5059,-0.5055,-0.5047,-0.5055,-0.505,-0.5061,-0.5065,-0.5068,-0.507,-0.5075,-0.5079,-0.5029,-0.5029,-0.5029,0,0,-0.5219,-0.52,-0.5198,-0.5177,-0.5164,-0.516,-0.5133,-0.5129,-0.5126,-0.5095,-0.5093,-0.5081,-0.5065,-0.5069,-0.5069,-0.5059,-0.5083,-0.5071,-0.5074,-0.5074,-0.5077,-0.5082,-0.5086,-0.5031,-0.503,-0.503,0,0,-0.5249,-0.5233,-0.5235,-0.5223,-0.5203,-0.5186,-0.5187,-0.5162,-0.5153,-0.515,-0.5127,-0.5124,-0.5112,-0.5102,-0.5095,-0.5122,-0.5106,-0.512,-0.5143,-0.5147,-0.5151,-0.5155,-0.5165,-0.5169,-0.5122,-0.5122,-0.5122,0,-0.5274,-0.5264,-0.5239,-0.5236,-0.5228,-0.5199,-0.5202,-0.5191,-0.5171,-0.5167,-0.5156,-0.5141,-0.5128,-0.5129,-0.5136,-0.5131,-0.5132,-0.5123,-0.5153,-0.5156,-0.5159,-0.5168,-0.5172,-0.5124,-0.5124,-0.5124,-0.5124,0,-0.5297,-0.5291,-0.5295,-0.5275,-0.5267,-0.5268,-0.5243,-0.5239,-0.5224,-0.5208,-0.5207,-0.519,-0.5179,-0.5178,-0.5163,-0.5178,-0.5172,-0.5157,-0.5138,-0.5166,-0.5175,-0.5178,-0.5127,-0.5126,-0.5126,-0.5125,0,0,-0.535,-0.5316,-0.5318,-0.5309,-0.5285,-0.5281,-0.528,-0.5268,-0.5266,-0.5253,-0.5252,-0.5244,-0.523,-0.5222,-0.5206,-0.521,-0.5233,-0.5194,-0.5193,-0.5203,-0.525,-0.5262,-0.5266,-0.5222,-0.5223,-0.5223,-0.5251,0,-0.5377,-0.5373,-0.535,-0.5353,-0.5348,-0.532,-0.532,-0.5306,-0.5292,-0.5287,-0.5272,-0.5266,-0.5248,-0.5243,-0.5245,-0.523,-0.5243,-0.5227,-0.5223,-0.5223,-0.5228,-0.5271,-0.5283,-0.5311,-0.5254,-0.5255,-0.5255,0,-0.5408,-0.5396,-0.5398,-0.5375,-0.5372,-0.5372,-0.5359,-0.5354,-0.5339,-0.5328,-0.532,-0.5302,-0.5301,-0.5283,-0.5282,-0.5272,-0.5269,-0.5261,-0.5262,-0.5261,-0.5241,-0.5272,-0.5319,-0.5323,-0.526,-0.526,-0.526,0,-0.5448,-0.5432,-0.5432,-0.5425,-0.5398,-0.5398,-0.5388,-0.5371,-0.5366,-0.5355,-0.5352,-0.5342,-0.5336,-0.533,-0.531,-0.5298,-0.5312,-0.5292,-0.5305,-0.5305,-0.5309,-0.531,-0.5357,-0.5306,-0.5306,-0.5306,-0.5306,0,-0.5481,-0.5484,-0.545,-0.5449,-0.5452,-0.5426,-0.543,-0.5417,-0.5402,-0.54,-0.5376,-0.5375,-0.5348,-0.5344,-0.5329,-0.5331,-0.5329,-0.5322,-0.5318,-0.5324,-0.5325,-0.5322,-0.532,-0.5307,-0.5307,-0.5307,-0.5306,0,-0.5526,-0.5503,-0.5501,-0.5476,-0.5469,-0.5473,-0.5451,-0.5451,-0.5435,-0.5433,-0.5431,-0.5407,-0.5401,-0.538,-0.537,-0.5359,-0.5367,-0.5359,-0.5372,-0.537,-0.5384,-0.5384,-0.5432,-0.5438,-0.5383,-0.5383,-0.5384,0,-0.5549,-0.5551,-0.5525,-0.5521,-0.5511,-0.5505,-0.5499,-0.5474,-0.5469,-0.5452,-0.5454,-0.5446,-0.5438,-0.5431,-0.5413,-0.5406,-0.5397,-0.5415,-0.5396,-0.5403,-0.5399,-0.54,-0.54,-0.5419,-0.542,-0.5421,-0.5421,0,-0.5593,-0.5581,-0.5573,-0.5561,-0.5554,-0.5544,-0.5532,-0.5531,-0.5503,-0.5499,-0.5492,-0.5486,-0.5475,-0.5468,-0.5457,-0.5448,-0.5431,-0.5427,-0.543,-0.5437,-0.5445,-0.5442,-0.5385,-0.5426,-0.5426,-0.5425,-0.5425,-0.5425,-0.5628,-0.5629,-0.5611,-0.5602,-0.5591,-0.558,-0.5579,-0.5563,-0.5556,-0.5545,-0.553,-0.5526,-0.5511,-0.5495,-0.5486,-0.5483,-0.5474,-0.5478,-0.5479,-0.548,-0.5484,-0.5445,-0.5481,-0.5481,-0.5481,-0.5481,-0.5481,0,-0.5672,-0.5658,-0.5651,-0.5635,-0.5629,-0.5612,-0.5598,-0.5595,-0.559,-0.5578,-0.557,-0.5563,-0.5557,-0.5538,-0.553,-0.5532,-0.5524,-0.553,-0.5531,-0.5529,-0.5492,-0.5491,-0.5537,-0.5537,-0.5537,-0.5537,-0.5537,-0.5537,-0.5693,-0.5693,-0.568,-0.5674,-0.5661,-0.5655,-0.5649,-0.564,-0.563,-0.5623,-0.5617,-0.5604,-0.559,-0.558,-0.5574,-0.5569,-0.5568,-0.5577,-0.557,-0.5537,-0.5531,-0.5526,-0.5525,-0.5577,-0.5577,-0.5607,-0.5607,-0.5607]},{"header":{"parameterUnit":"m.s-1","parameterCategory":1,"la1":30.2991,"la2":30.254,"lo1":-89.0895,"lo2":-89.0444,"dy":0.0017,"dx":0.0017,"nx":28,"ny":28,"refTime":"2025-04-22T03:00:00:Z","depth":0,"parameterNumber":3,"parameterNumberName":"V-component_of_WINDS"},"data":[0,0,0,0,0,0,0,0,0,0,0,0,0,0,0,0,0,0,0,0,0,0,0,0,0,0,0,0,0,0,0,0,0,0,0,0,0,0,0,0,0,0,0,0,0,0,0,0,0,0,0,0,0,0,0,0,0,0,2.5947,2.5947,0,2.5898,2.5898,2.5897,2.5927,2.5929,2.593,2.5932,2.5874,2.5871,2.5868,0,0,0,0,0,0,0,0,0,0,0,0,0,2.6061,2.6059,2.5947,2.5947,2.5946,2.5898,2.5897,2.5897,2.5927,2.5929,2.5931,2.5932,2.5875,2.5872,2.5868,0,0,0,0,0,0,0,0,0,0,0,0,0,2.6012,2.6058,2.5948,2.5956,2.5956,2.5898,2.5897,2.5897,2.5927,2.5929,2.5931,2.5933,2.5876,2.5872,2.5868,2.5797,0,0,2.5854,2.5852,0,0,0,0,0,0,0,0,2.6014,2.6007,2.5955,2.5955,2.5955,2.5921,2.5917,2.5863,2.5926,2.5937,2.5932,2.5934,2.5887,2.5882,2.5868,2.5794,2.5792,2.5854,2.5851,2.5849,2.5848,0,0,0,0,0,0,0,2.6018,2.601,2.5928,2.5954,2.5954,2.596,2.5955,2.5907,2.59,2.5937,2.5939,2.5933,2.5888,2.5872,2.5867,2.5791,2.5854,2.585,2.5848,2.5846,2.5657,2.5654,0,0,0,0,0,0,2.6022,2.6012,2.5929,2.5926,2.5991,2.5956,2.5951,2.593,2.5901,2.5899,2.5931,2.5935,2.5879,2.5872,2.5865,2.578,2.585,2.5845,2.5843,2.5659,2.5656,2.5653,0,0,0,0,0,0,2.6024,2.6014,2.5931,2.597,2.596,2.5952,2.5928,2.5928,2.5912,2.5897,2.5896,2.5917,2.588,2.5871,2.5814,2.5779,2.5844,2.584,2.5662,2.5658,2.5655,2.561,0,0,0,0,0,0,2.6027,2.6015,2.5989,2.5969,2.5958,2.5883,2.5926,2.5925,2.5905,2.5909,2.5883,2.5881,2.5881,2.582,2.581,2.5774,2.5836,2.5665,2.566,2.5656,2.5615,2.5605,2.5598,0,0,0,0,0,2.6031,2.5977,2.5988,2.5977,2.5926,2.5881,2.5874,2.5877,2.5902,2.5876,2.5866,2.5882,2.5785,2.5814,2.5803,2.5765,2.5667,2.5662,2.5656,2.5619,2.5607,2.5598,0,0,0,0,0,0,2.599,2.5974,2.5986,2.5925,2.5904,2.5886,2.5853,2.5865,2.5835,2.584,2.5844,2.5837,2.5778,2.5766,2.5799,2.5695,2.5729,2.5721,2.5705,2.5694,2.5686,2.5689,2.5833,0,0,0,0,0,2.5975,2.5941,2.5929,2.5875,2.5865,2.586,2.5841,2.5846,2.5823,2.5814,2.5801,2.5777,2.5741,2.5717,2.5683,2.5614,2.5608,2.5582,2.5573,2.5566,2.5559,2.552,2.5508,2.5635,2.5636,2.5636,0,0,2.594,2.5928,2.5906,2.5867,2.5852,2.5815,2.5853,2.5812,2.5785,2.5807,2.5753,2.5742,2.5716,2.5652,2.5624,2.564,2.5523,2.5559,2.5554,2.555,2.5513,2.5501,2.5491,2.5632,2.5632,2.5633,0,0,2.586,2.5848,2.5803,2.5787,2.5765,2.5762,2.5751,2.5732,2.5726,2.5672,2.5689,2.5655,2.5593,2.5574,2.5556,2.5469,2.5482,2.5458,2.5412,2.5375,2.5365,2.5356,2.5324,2.5313,2.5451,2.5451,2.5451,0,2.582,2.5769,2.5777,2.5736,2.5717,2.5739,2.5691,2.5675,2.5641,2.5627,2.5647,2.5571,2.5555,2.5487,2.5466,2.5451,2.5437,2.546,2.5366,2.5357,2.5349,2.5318,2.5307,2.5448,2.5448,2.5448,2.5449,0,2.572,2.5684,2.5649,2.5619,2.5597,2.5552,2.5552,2.5528,2.5535,2.553,2.5474,2.5456,2.5419,2.5403,2.5408,2.5336,2.5347,2.5366,2.5401,2.5334,2.5305,2.5294,2.5444,2.5445,2.5446,2.5446,0,0,2.5611,2.5588,2.5575,2.5561,2.5538,2.5509,2.5466,2.5432,2.5411,2.5387,2.5349,2.5297,2.5316,2.5295,2.5298,2.5266,2.5197,2.5289,2.5288,2.5272,2.5115,2.51,2.5086,2.5206,2.5204,2.5203,2.5117,0,2.5529,2.5455,2.5462,2.5391,2.5357,2.5377,2.5339,2.532,2.5314,2.5282,2.5275,2.5238,2.5266,2.5253,2.5222,2.5212,2.5166,2.5219,2.5169,2.5167,2.5174,2.5071,2.5055,2.4975,2.5106,2.5104,2.5102,0,2.5423,2.5398,2.5325,2.5308,2.5293,2.5259,2.5229,2.5199,2.5177,2.5175,2.5153,2.5162,2.5116,2.5153,2.5089,2.5125,2.5105,2.5097,2.5094,2.5088,2.513,2.5062,2.4949,2.4937,2.5085,2.5087,2.5088,0,2.5349,2.5298,2.5247,2.5235,2.5214,2.5189,2.5179,2.516,2.5139,2.5112,2.5098,2.5065,2.5046,2.5019,2.5019,2.5046,2.4953,2.499,2.4949,2.4948,2.4927,2.4928,2.4809,2.4916,2.4916,2.4917,2.4917,0,2.5256,2.521,2.5214,2.5183,2.5131,2.5139,2.5087,2.5079,2.5062,2.5028,2.5043,2.501,2.5012,2.4978,2.4977,2.4923,2.4915,2.4911,2.4911,2.4909,2.4909,2.4895,2.49,2.4913,2.4914,2.4915,2.4915,0,2.5165,2.5166,2.5112,2.5098,2.5093,2.5056,2.5042,2.5011,2.5008,2.4965,2.4955,2.4948,2.4909,2.4906,2.4861,2.486,2.4795,2.4801,2.4803,2.4804,2.4762,2.4765,2.4628,2.461,2.473,2.4729,2.4728,0,2.5105,2.507,2.5053,2.5033,2.5021,2.4988,2.4968,2.4973,2.4951,2.4924,2.4896,2.486,2.4831,2.4767,2.4757,2.4722,2.4727,2.4681,2.4722,2.4721,2.4725,2.4727,2.4723,2.4673,2.4672,2.4671,2.467,0,2.4997,2.5,2.4972,2.4943,2.492,2.4897,2.4875,2.4857,2.486,2.4834,2.4796,2.4774,2.4729,2.4691,2.4657,2.4644,2.4656,2.4658,2.4646,2.4643,2.4645,2.4642,2.478,2.466,2.4661,2.4662,2.4662,2.4663,2.4919,2.489,2.4873,2.4841,2.4826,2.4806,2.4777,2.4771,2.474,2.4705,2.471,2.4667,2.4646,2.4602,2.4587,2.4552,2.4567,2.455,2.4546,2.4541,2.4537,2.4652,2.4546,2.4546,2.4546,2.4546,2.4547,0,2.4812,2.4803,2.4773,2.4745,2.4719,2.4736,2.4713,2.469,2.4653,2.4633,2.4605,2.4561,2.4525,2.4513,2.4478,2.4452,2.4457,2.4442,2.4444,2.444,2.4525,2.4539,2.4439,2.4439,2.4439,2.4439,2.4439,2.4439,2.4753,2.4704,2.4705,2.4648,2.4638,2.4599,2.4584,2.4565,2.455,2.4501,2.4472,2.4465,2.4448,2.4412,2.4379,2.4376,2.4362,2.4345,2.4344,2.4423,2.4434,2.4445,2.4457,2.4342,2.4342,2.4262,2.4261,2.4261]}]]